| time (UTC) | temp C | wind direction | speed KPH | gust KPH | rain 1hr cm | rain 24hr cm | rain mn cm | humidity % | barometer mb |
| 20260507091522 | 7 | 0.0 | 4.8 | 0.00 | 0.99 | 0.81 | 97 | 1012.1 | |
| 20260507090536 | 7 | 0.0 | 6.4 | 0.00 | 0.99 | 0.81 | 97 | 1011.9 | |
| 20260507085522 | 7 | 0.0 | 3.2 | 0.00 | 0.99 | 0.81 | 97 | 1011.8 | |
| 20260507084522 | 7 | 0.0 | 4.8 | 0.00 | 0.99 | 0.81 | 97 | 1011.7 | |
| 20260507083522 | 7 | 0.0 | 3.2 | 0.00 | 0.99 | 0.81 | 97 | 1011.6 | |
| 20260507082536 | 7 | 0.0 | 4.8 | 0.00 | 0.99 | 0.81 | 97 | 1011.6 | |
| 20260507081547 | 7 | 0.0 | 3.2 | 0.00 | 0.99 | 0.81 | 97 | 1011.4 | |
| 20260507080521 | 7 | 90 | 1.6 | 6.4 | 0.00 | 0.99 | 0.81 | 97 | 1011.3 |
| 20260507075522 | 7 | 0.0 | 4.8 | 0.00 | 1.02 | 0.81 | 97 | 1011.1 | |
| 20260507074521 | 7 | 0.0 | 4.8 | 0.00 | 1.04 | 0.81 | 97 | 1011.1 | |
| 20260507073522 | 7 | 90 | 1.6 | 6.4 | 0.00 | 1.09 | 0.81 | 97 | 1010.8 |
| 20260507072601 | 7 | 0.0 | 4.8 | 0.00 | 1.12 | 0.81 | 96 | 1010.7 | |
| 20260507071547 | 7 | 90 | 1.6 | 9.7 | 0.00 | 1.12 | 0.81 | 96 | 1010.7 |
| 20260507070522 | 7 | 90 | 1.6 | 6.4 | 0.00 | 1.14 | 0.81 | 96 | 1010.7 |
| 20260507065522 | 7 | 90 | 1.6 | 6.4 | 0.00 | 1.17 | 0.81 | 96 | 1010.5 |
| 20260507064535 | 7 | 90 | 1.6 | 6.4 | 0.00 | 1.17 | 0.81 | 96 | 1010.4 |
| 20260507063535 | 7 | 0.0 | 4.8 | 0.00 | 1.19 | 0.81 | 96 | 1010.3 | |
| 20260507062522 | 7 | 90 | 1.6 | 4.8 | 0.00 | 1.19 | 0.81 | 96 | 1010.1 |
| 20260507061536 | 7 | 90 | 1.6 | 8.0 | 0.00 | 1.19 | 0.81 | 97 | 1009.9 |
| 20260507060521 | 7 | 0.0 | 1.6 | 0.00 | 1.19 | 0.81 | 97 | 1009.8 | |
| 20260507055612 | 7 | 0.0 | 1.6 | 0.00 | 1.22 | 0.81 | 97 | 1009.6 | |
| 20260507054521 | 7 | 90 | 1.6 | 6.4 | 0.03 | 1.22 | 0.81 | 97 | 1009.5 |
| 20260507053600 | 7 | 0.0 | 4.8 | 0.03 | 1.22 | 0.81 | 97 | 1009.5 | |
| 20260507052522 | 7 | 0.0 | 3.2 | 0.03 | 1.24 | 0.81 | 97 | 1009.4 | |
| 20260507051535 | 7 | 0.0 | 9.7 | 0.03 | 1.24 | 0.81 | 97 | 1009.3 | |
| 20260507050702 | 7 | 90 | 3.2 | 12.9 | 0.03 | 1.24 | 0.81 | 96 | 1009.1 |
| 20260507045521 | 7 | 90 | 1.6 | 9.7 | 0.03 | 1.27 | 0.81 | 96 | 1009.0 |
| 20260507044521 | 7 | 90 | 1.6 | 6.4 | 0.00 | 1.30 | 0.79 | 96 | 1008.9 |
| 20260507043536 | 7 | 90 | 3.2 | 9.7 | 0.00 | 1.30 | 0.79 | 96 | 1008.9 |
| 20260507042521 | 7 | 180 | 3.2 | 14.5 | 0.00 | 1.32 | 0.79 | 96 | 1008.8 |
| 20260507041521 | 7 | 180 | 1.6 | 8.0 | 0.00 | 1.35 | 0.79 | 96 | 1008.7 |
| 20260507040535 | 7 | 180 | 1.6 | 8.0 | 0.00 | 1.37 | 0.79 | 96 | 1008.5 |
| 20260507035547 | 7 | 180 | 3.2 | 9.7 | 0.03 | 1.37 | 0.79 | 96 | 1008.4 |
| 20260507034521 | 8 | 180 | 1.6 | 8.0 | 0.05 | 1.40 | 0.79 | 96 | 1008.4 |
| 20260507033521 | 8 | 180 | 1.6 | 4.8 | 0.08 | 1.45 | 0.79 | 96 | 1008.3 |
| 20260507032600 | 8 | 180 | 1.6 | 8.0 | 0.13 | 1.52 | 0.79 | 96 | 1008.2 |
| 20260507031535 | 8 | 0.0 | 4.8 | 0.18 | 1.57 | 0.79 | 96 | 1008.2 | |
| 20260507030546 | 8 | 0.0 | 4.8 | 0.23 | 1.60 | 0.79 | 96 | 1008.1 | |
| 20260507025521 | 8 | 180 | 1.6 | 6.4 | 0.20 | 1.63 | 0.76 | 96 | 1007.9 |
| 20260507024521 | 8 | 180 | 1.6 | 6.4 | 0.18 | 1.63 | 0.74 | 96 | 1007.9 |
| 20260507023521 | 8 | 0.0 | 4.8 | 0.18 | 1.65 | 0.71 | 96 | 1007.9 | |
| 20260507022521 | 8 | 180 | 1.6 | 6.4 | 0.15 | 1.65 | 0.66 | 96 | 1007.9 |
| 20260507021536 | 8 | 0.0 | 1.6 | 0.13 | 1.65 | 0.61 | 97 | 1007.8 | |
| 20260507020535 | 8 | 0.0 | 1.6 | 0.08 | 1.65 | 0.56 | 96 | 1007.7 | |
| 20260507015521 | 8 | 0.0 | 3.2 | 0.10 | 1.73 | 0.56 | 96 | 1007.6 | |
| 20260507014546 | 8 | 0.0 | 1.6 | 0.13 | 1.80 | 0.56 | 96 | 1007.5 | |
| 20260507013521 | 8 | 0.0 | 1.6 | 0.13 | 1.83 | 0.53 | 96 | 1007.5 | |
| 20260507012521 | 8 | 0.0 | 1.6 | 0.13 | 1.85 | 0.51 | 96 | 1007.4 | |
| 20260507011600 | 8 | 0.0 | 1.6 | 0.13 | 1.91 | 0.48 | 96 | 1007.3 | |
| 20260507010521 | 8 | 0.0 | 1.6 | 0.13 | 2.01 | 0.48 | 96 | 1007.2 | |
| 20260507005521 | 8 | 0.0 | 1.6 | 0.10 | 2.03 | 0.46 | 96 | 1007.2 | |
| 20260507004535 | 8 | 0.0 | 3.2 | 0.10 | 2.06 | 0.43 | 96 | 1007.1 | |
| 20260507003522 | 8 | 0.0 | 0.0 | 0.13 | 2.08 | 0.41 | 96 | 1007.1 | |
| 20260507002521 | 8 | 0.0 | 0.0 | 0.13 | 2.16 | 0.38 | 96 | 1007.0 | |
| 20260507001521 | 8 | 0.0 | 0.0 | 0.13 | 2.18 | 0.36 | 96 | 1007.0 | |
| 20260507000521 | 9 | 0.0 | 0.0 | 0.18 | 2.21 | 0.36 | 96 | 1006.9 | |
| 20260506235611 | 9 | 0.0 | 1.6 | 0.20 | 2.26 | 0.36 | 96 | 1007.0 | |
| 20260506234521 | 9 | 0.0 | 1.6 | 0.18 | 2.29 | 0.33 | 96 | 1006.9 | |
| 20260506233521 | 9 | 0.0 | 1.6 | 0.18 | 2.26 | 0.28 | 96 | 1006.9 | |
| 20260506232600 | 9 | 0.0 | 0.0 | 0.18 | 2.29 | 0.25 | 96 | 1006.8 | |
| 20260506231546 | 9 | 0.0 | 0.0 | 0.23 | 2.29 | 0.23 | 96 | 1006.7 | |
| 20260506230521 | 9 | 0.0 | 0.0 | 0.18 | 2.29 | 0.18 | 96 | 1006.7 | |
| 20260506225521 | 9 | 0.0 | 0.0 | 0.15 | 2.29 | 0.15 | 96 | 1006.6 | |
| 20260506224535 | 9 | 0.0 | 0.0 | 0.15 | 2.31 | 0.15 | 96 | 1006.6 | |
| 20260506223521 | 9 | 0.0 | 0.0 | 0.10 | 2.29 | 0.10 | 96 | 1006.6 | |
| 20260506222535 | 9 | 0.0 | 0.0 | 0.08 | 2.29 | 0.08 | 96 | 1006.5 | |
| 20260506221521 | 9 | 0.0 | 0.0 | 0.03 | 2.26 | 0.00 | 96 | 1006.4 | |
| 20260506220521 | 9 | 0.0 | 0.0 | 0.05 | 2.29 | 0.00 | 96 | 1006.5 | |
| 20260506215535 | 9 | 0.0 | 0.0 | 0.05 | 2.34 | 2.31 | 96 | 1006.4 | |
| 20260506214521 | 8 | 0.0 | 0.0 | 0.05 | 2.36 | 2.31 | 96 | 1006.4 | |
| 20260506213523 | 8 | 0.0 | 0.0 | 0.05 | 2.39 | 2.31 | 96 | 1006.3 | |
| 20260506212523 | 8 | 0.0 | 0.0 | 0.05 | 2.41 | 2.31 | 96 | 1006.3 | |
| 20260506211523 | 8 | 0.0 | 0.0 | 0.03 | 2.41 | 2.29 | 96 | 1006.3 | |
| 20260506210523 | 8 | 0.0 | 0.0 | 0.03 | 2.41 | 2.26 | 96 | 1006.2 | |
| 20260506205522 | 9 | 0.0 | 0.0 | 0.03 | 2.44 | 2.26 | 96 | 1006.3 | |
| 20260506204523 | 9 | 0.0 | 0.0 | 0.03 | 2.44 | 2.26 | 96 | 1006.3 | |
| 20260506203537 | 9 | 0.0 | 0.0 | 0.03 | 2.46 | 2.26 | 96 | 1006.3 | |
| 20260506202523 | 9 | 0.0 | 0.0 | 0.03 | 2.46 | 2.26 | 95 | 1006.1 | |
| 20260506201521 | 9 | 0.0 | 4.8 | 0.03 | 2.46 | 2.26 | 95 | 1006.1 | |
| 20260506200523 | 9 | 0.0 | 1.6 | 0.03 | 2.46 | 2.24 | 95 | 1006.1 | |
| 20260506195523 | 10 | 0.0 | 1.6 | 0.03 | 2.46 | 2.24 | 95 | 1005.9 | |
| 20260506194523 | 10 | 0.0 | 3.2 | 0.05 | 2.46 | 2.24 | 95 | 1005.9 | |
| 20260506193523 | 10 | 0.0 | 0.0 | 0.10 | 2.46 | 2.24 | 95 | 1005.7 | |
| 20260506192524 | 10 | 0.0 | 6.4 | 0.10 | 2.46 | 2.24 | 95 | 1005.7 | |
| 20260506191522 | 10 | 0.0 | 1.6 | 0.10 | 2.46 | 2.24 | 95 | 1005.6 | |
| 20260506190602 | 10 | 0.0 | 0.0 | 0.08 | 2.44 | 2.21 | 95 | 1005.6 | |
| 20260506185522 | 10 | 0.0 | 1.6 | 0.08 | 2.44 | 2.21 | 95 | 1005.4 | |
| 20260506184522 | 10 | 0.0 | 0.0 | 0.05 | 2.41 | 2.18 | 94 | 1005.3 | |
| 20260506183522 | 11 | 0.0 | 1.6 | 0.00 | 2.36 | 2.13 | 95 | 1005.1 | |
| 20260506182522 | 11 | 0.0 | 0.0 | 0.00 | 2.36 | 2.13 | 94 | 1005.0 | |
| 20260506181522 | 11 | 0.0 | 1.6 | 0.00 | 2.36 | 2.13 | 94 | 1004.8 | |
| 20260506180536 | 11 | 0.0 | 3.2 | 0.00 | 2.36 | 2.13 | 94 | 1004.8 | |
| 20260506175522 | 11 | 0.0 | 1.6 | 0.00 | 2.36 | 2.13 | 94 | 1004.7 | |
| 20260506174522 | 11 | 0.0 | 4.8 | 0.00 | 2.36 | 2.13 | 94 | 1004.8 | |
| 20260506173522 | 11 | 0.0 | 1.6 | 0.00 | 2.36 | 2.13 | 94 | 1004.7 | |
| 20260506172522 | 11 | 0.0 | 0.0 | 0.00 | 2.36 | 2.13 | 93 | 1004.8 | |
| 20260506171601 | 11 | 0.0 | 3.2 | 0.00 | 2.36 | 2.13 | 93 | 1004.7 | |
| 20260506170522 | 11 | 0.0 | 1.6 | 0.00 | 2.36 | 2.13 | 93 | 1004.6 | |
| 20260506165522 | 12 | 0.0 | 0.0 | 0.00 | 2.36 | 2.13 | 92 | 1004.6 | |
| 20260506164522 | 12 | 0.0 | 0.0 | 0.00 | 2.36 | 2.13 | 92 | 1004.6 | |
| 20260506163522 | 12 | 0.0 | 0.0 | 0.00 | 2.36 | 2.13 | 92 | 1004.5 | |
| 20260506162536 | 12 | 0.0 | 1.6 | 0.00 | 2.36 | 2.13 | 92 | 1004.4 | |
| 20260506161522 | 12 | 0.0 | 3.2 | 0.00 | 2.36 | 2.13 | 92 | 1004.2 | |
| 20260506160522 | 12 | 0.0 | 4.8 | 0.00 | 2.36 | 2.13 | 91 | 1004.3 | |
| 20260506155522 | 12 | 0.0 | 3.2 | 0.00 | 2.36 | 2.13 | 91 | 1004.4 | |
| 20260506154522 | 12 | 0.0 | 6.4 | 0.00 | 2.36 | 2.13 | 91 | 1004.4 | |
| 20260506153523 | 12 | 0.0 | 6.4 | 0.00 | 2.36 | 2.13 | 90 | 1004.4 | |
| 20260506152602 | 12 | 0.0 | 3.2 | 0.00 | 2.36 | 2.13 | 91 | 1004.4 | |
| 20260506151601 | 12 | 180 | 1.6 | 4.8 | 0.00 | 2.36 | 2.13 | 91 | 1004.4 |
| 20260506150522 | 12 | 180 | 1.6 | 8.0 | 0.00 | 2.36 | 2.13 | 91 | 1004.3 |
| 20260506145522 | 12 | 0.0 | 3.2 | 0.00 | 2.36 | 2.13 | 92 | 1004.4 | |
| 20260506144522 | 12 | 0.0 | 4.8 | 0.00 | 2.36 | 2.13 | 92 | 1004.3 | |
| 20260506143522 | 12 | 0.0 | 4.8 | 0.00 | 2.36 | 2.13 | 92 | 1004.4 | |
| 20260506142522 | 12 | 0.0 | 3.2 | 0.00 | 2.36 | 2.13 | 92 | 1004.4 | |
| 20260506141522 | 12 | 0.0 | 3.2 | 0.00 | 2.36 | 2.13 | 93 | 1004.3 | |
| 20260506140522 | 12 | 0.0 | 4.8 | 0.00 | 2.36 | 2.13 | 93 | 1004.3 | |
| 20260506135522 | 12 | 0.0 | 1.6 | 0.00 | 2.36 | 2.13 | 94 | 1004.3 | |
| 20260506134547 | 12 | 180 | 1.6 | 8.0 | 0.00 | 2.36 | 2.13 | 93 | 1004.3 |
| 20260506133601 | 12 | 0.0 | 3.2 | 0.00 | 2.36 | 2.13 | 94 | 1004.4 | |
| 20260506132547 | 12 | 0.0 | 4.8 | 0.00 | 2.36 | 2.13 | 94 | 1004.3 | |
| 20260506131522 | 12 | 0.0 | 1.6 | 0.00 | 2.36 | 2.13 | 95 | 1004.3 | |
| 20260506130522 | 12 | 0.0 | 1.6 | 0.00 | 2.36 | 2.13 | 95 | 1004.3 | |
| 20260506125547 | 12 | 0.0 | 3.2 | 0.00 | 2.36 | 2.13 | 95 | 1004.3 | |
| 20260506124522 | 11 | 0.0 | 3.2 | 0.00 | 2.36 | 2.13 | 96 | 1004.3 | |
| 20260506123522 | 11 | 0.0 | 3.2 | 0.00 | 2.36 | 2.13 | 96 | 1004.3 | |
| 20260506122601 | 11 | 0.0 | 4.8 | 0.00 | 2.36 | 2.13 | 96 | 1004.3 | |
| 20260506121601 | 11 | 0.0 | 3.2 | 0.00 | 2.36 | 2.13 | 96 | 1004.2 | |
| 20260506120522 | 11 | 0.0 | 1.6 | 0.00 | 2.36 | 2.13 | 96 | 1004.1 | |
| 20260506115522 | 11 | 0.0 | 3.2 | 0.00 | 2.36 | 2.13 | 96 | 1004.0 | |
| 20260506114522 | 11 | 0.0 | 4.8 | 0.00 | 2.36 | 2.13 | 96 | 1003.9 | |
| 20260506113522 | 11 | 0.0 | 3.2 | 0.00 | 2.36 | 2.13 | 97 | 1003.8 | |
| 20260506112522 | 11 | 0.0 | 1.6 | 0.00 | 2.36 | 2.13 | 97 | 1004.0 | |
| 20260506111536 | 11 | 0.0 | 3.2 | 0.00 | 2.36 | 2.13 | 97 | 1003.9 | |
| 20260506110522 | 11 | 0.0 | 4.8 | 0.00 | 2.36 | 2.13 | 97 | 1004.1 | |
| 20260506105522 | 11 | 0.0 | 4.8 | 0.00 | 2.36 | 2.13 | 97 | 1004.0 | |
| 20260506104547 | 11 | 0.0 | 3.2 | 0.00 | 2.36 | 2.13 | 97 | 1004.1 | |
| 20260506103522 | 11 | 0.0 | 3.2 | 0.00 | 2.36 | 2.13 | 97 | 1004.0 | |
| 20260506102611 | 11 | 0.0 | 4.8 | 0.00 | 2.36 | 2.13 | 97 | 1003.9 | |
| 20260506101522 | 11 | 0.0 | 6.4 | 0.00 | 2.36 | 2.13 | 97 | 1003.9 | |
| 20260506100521 | 11 | 0.0 | 3.2 | 0.00 | 2.36 | 2.13 | 97 | 1003.8 | |
| 20260506095521 | 11 | 180 | 1.6 | 6.4 | 0.00 | 2.36 | 2.13 | 97 | 1003.8 |
| 20260506094522 | 11 | 0.0 | 4.8 | 0.00 | 2.36 | 2.13 | 97 | 1003.8 | |
| 20260506093521 | 11 | 0.0 | 4.8 | 0.00 | 2.36 | 2.13 | 97 | 1003.7 | |
| 20260506092522 | 10 | 0.0 | 4.8 | 0.00 | 2.36 | 2.13 | 97 | 1003.7 |